2022年9月27日

时间 代码 天气 温度 能见度 天花板 METAR/SPECI
02:25
M
10 °C 7 km 3.100 ft 280° 280° 5 kt METAR EHGG 270025Z AUTO 28005KT 230V310 7000 SHRA +DZ FEW004 FEW015CB SCT027 BKN031 10/09 Q0993
01:55
V
9 °C 10 km+ - 260° 260° 5 kt METAR EHGG 262355Z AUTO 26005KT 9999 FEW015CB SCT048 09/09 Q0993 REDZ
01:25
V
10 °C 10 km+ - 290° 290° 6 kt METAR EHGG 262325Z AUTO 29006KT 260V320 9999 FEW029 SCT033 10/09 Q0993
00:55
V
10 °C 10 km+ - 310° 310° 6 kt METAR EHGG 262255Z AUTO 31006KT 270V340 9999 NSC 10/09 Q0993 REDZ
00:25
V
10 °C 10 km+ - 270° 270° 4 kt METAR EHGG 262225Z AUTO 27004KT 240V300 9999 FEW026 10/09 Q0993

2022年9月26日

时间 代码 天气 温度 能见度 天花板 METAR/SPECI
23:55
V
10 °C 10 km+ - 260° 260° 5 kt METAR EHGG 262155Z AUTO 26005KT 9999 -DZ FEW025 10/09 Q0993
23:25
V
10 °C 10 km+ - 250° 250° 5 kt METAR EHGG 262125Z AUTO 25005KT 9999 FEW030 10/10 Q0993 REDZ
22:55
V
10 °C 10 km+ - 260° 260° 4 kt METAR EHGG 262055Z AUTO 26004KT 9999 -DZ NSC 10/10 Q0993 REDZ
22:25
V
11 °C 10 km+ - 270° 270° 7 kt METAR EHGG 262025Z AUTO 27007KT 9999 DZ FEW015CB SCT047 11/10 Q0993 TEMPO 7000 -SHRA FEW020CB
21:55
V
10 °C 10 km+ 3.400 ft 260° 260° 6 kt METAR EHGG 261955Z AUTO 26006KT 9999 FEW023 SCT029 BKN034 10/10 Q0994 TEMPO 7000 -SHRA FEW020CB
21:25
V
11 °C 10 km+ - 270° 270° 5 kt METAR EHGG 261925Z AUTO 27005KT 9999 NSC 11/10 Q0993 TEMPO 7000 -SHRA FEW020CB
20:55
M
11 °C 10 km+ 1.900 ft 240° 240° 7 kt METAR EHGG 261855Z AUTO 24007KT 9999 FEW012 BKN019 BKN027 11/11 Q0993 TEMPO 7000 -SHRA FEW020CB
20:25
M
11 °C 10 km+ 2.500 ft 210° 210° 6 kt METAR EHGG 261825Z AUTO 21006KT 9999 SCT022 BKN025 OVC029 11/11 Q0993 REDZ TEMPO 7000 -SHRA FEW020CB
19:55
V
11 °C 10 km+ - 200° 200° 4 kt METAR EHGG 261755Z AUTO 20004KT 9999 FEW048 11/10 Q0993 TEMPO 7000 -SHRA FEW020CB
19:25
V
11 °C 10 km+ - 210° 210° 3 kt METAR EHGG 261725Z AUTO 21003KT 9999 FEW015CB 11/10 Q0993 TEMPO 7000 -SHRA FEW020CB
18:55
V
11 °C 8 km 4.600 ft 230° 230° 5 kt METAR EHGG 261655Z AUTO 23005KT 8000 SHRA FEW015CB SCT039 BKN046 11/11 Q0994 BECMG BKN020
18:25
M
12 °C 8 km 1.100 ft 250° 250° 6 kt METAR EHGG 261625Z AUTO 25006KT 200V300 8000 RA FEW004 SCT006 BKN011 FEW015CB 12/12 Q0994 BECMG BKN020
17:55
M
13 °C 10 km+ 2.900 ft 210° 210° 9 kt METAR EHGG 261555Z AUTO 21009KT 180V240 9999 FEW007 SCT008 BKN029 13/12 Q0993 TEMPO 6000 SHRA BKN012 SCT020CB
17:25
V
13 °C 10 km+ - 200° 200° 10 kt METAR EHGG 261525Z AUTO 20010KT 9999 FEW007/// SCT010/// 13/12 Q0993 TEMPO 6000 SHRA BKN012 SCT020CB
16:55
V
13 °C 10 km+ - 210° 210° 12 kt METAR EHGG 261455Z AUTO 21012KT 9999 -RA FEW008 13/12 Q0994 RERADZRA TEMPO 6000 SHRA BKN012 SCT020CB
16:25
I
12 °C 4,4 km 700 ft 210° 210° 11 kt METAR EHGG 261425Z AUTO 21011KT 170V240 4400 SHRA FEW004 BKN007 BKN008 12/11 Q0994 REDZ BECMG 9999 NSW BKN012
15:55
I
12 °C 10 km+ 800 ft 200° 200° 13 kt METAR EHGG 261355Z AUTO 20013KT 170V230 9999 FEW006 BKN008 BKN009 12/11 Q0994 NOSIG
15:25
I
12 °C 10 km+ 900 ft 210° 210° 16 kt METAR EHGG 261325Z AUTO 21016KT 170V250 9999 FEW006 SCT007 BKN009 12/11 Q0995 REDZ BECMG 6000
14:55
I
12 °C 5 km 800 ft 200° 200° 14 kt METAR EHGG 261255Z AUTO 20014KT 170V230 5000 -RADZ FEW006 SCT007 BKN008 12/11 Q0995 REDZRA TEMPO 4000 DZRA
14:25
I
12 °C 3,3 km 600 ft 200° 200° 13 kt METAR EHGG 261225Z AUTO 20013KT 3300 DZRA SCT005 BKN006 BKN008 12/11 Q0995 TEMPO 6000 -DZRA
13:55
I
11 °C 7 km 700 ft 200° 200° 12 kt METAR EHGG 261155Z AUTO 20012KT 170V230 7000 -DZ SCT006/// BKN007/// OVC009/// 11/11 Q0995 REDZ TEMPO 4000 RADZ SHRA BKN012 FEW018CB
13:25
I
11 °C 4,1 km 800 ft 190° 190° 12 kt METAR EHGG 261125Z AUTO 19012KT 160V230 4100 +DZ FEW005 SCT007 BKN008 11/10 Q0996 TEMPO 6000 RADZ SHRA BKN012 FEW018CB
12:55
I
11 °C 3,7 km 1.000 ft 200° 200° 12 kt METAR EHGG 261055Z AUTO 20012KT 150V230 3700 DZRA FEW008 SCT009 BKN010 11/10 Q0996 TEMPO 6000 RADZ SHRA BKN008 FEW018CB
12:25
I
11 °C 3,1 km 1.500 ft 200° 200° 13 kt METAR EHGG 261025Z AUTO 20013KT 160V230 3100 BR FEW005 SCT013 OVC015 11/10 Q0996 TEMPO 4000 RA SHRA BKN008 FEW018CB
11:55
M
12 °C 10 km+ 1.600 ft 200° 200° 14 kt METAR EHGG 260955Z AUTO 20014KT 150V220 9999 -RA BKN016 BKN029 OVC037 12/09 Q0997 TEMPO 7000 RA SHRA BKN012 FEW018CB
11:25
V
11 °C 10 km+ 4.800 ft 190° 190° 14 kt METAR EHGG 260925Z AUTO 19014KT 150V240 9999 -DZ SCT017 BKN048 11/09 Q0997 BECMG BKN008
10:55
V
11 °C 10 km+ - 190° 190° 15 kt METAR EHGG 260855Z AUTO 19015KT 150V210 9999 NSC 11/09 Q0997 NOSIG
10:25
V
11 °C 10 km+ - 190° 190° 15 kt METAR EHGG 260825Z AUTO 19015KT 150V230 9999 NSC 11/09 Q0997 NOSIG
09:55
V
11 °C 10 km+ 4.800 ft 200° 200° 13 kt METAR EHGG 260755Z AUTO 20013KT 160V230 9999 -DZ OVC048 11/09 Q0998 NOSIG
09:25
V
10 °C 10 km+ 4.300 ft 200° 200° 15 kt METAR EHGG 260725Z AUTO 20015KT 160V230 9999 -RA FEW015CB SCT037 OVC043 10/09 Q0998 REDZRA TEMPO 7000 RA
08:55
V
10 °C 10 km+ 3.900 ft 200° 200° 14 kt METAR EHGG 260655Z AUTO 20014KT 160V230 9999 -RADZ FEW030 BKN039 OVC046 10/09 Q0999 TEMPO 7000 RA
08:25
V
10 °C 10 km+ 4.500 ft 200° 200° 13 kt METAR EHGG 260625Z AUTO 20013KT 9999 -RA FEW015CB SCT040 OVC045 10/09 Q0999 REDZRA TEMPO 7000 RA
07:55
V
11 °C 10 km+ - 200° 200° 13 kt METAR EHGG 260555Z AUTO 20013KT 170V230 9999 DZ FEW015CB 11/09 Q1000 TEMPO 7000 RA
07:25
V
11 °C 10 km+ - 190° 190° 12 kt METAR EHGG 260525Z AUTO 19012KT 160V220 9999 DZRA NSC 11/09 Q1000 REDZ TEMPO 7000 RA
06:55
V
11 °C 10 km+ 3.900 ft 190° 190° 11 kt METAR EHGG 260455Z AUTO 19011KT 160V230 9999 DZ SCT035 BKN039 BKN044 11/09 Q1001 TEMPO 7000 RA
06:25
V
11 °C 10 km+ - 190° 190° 11 kt METAR EHGG 260425Z AUTO 19011KT 160V220 9999 NSC 11/10 Q1001 REDZ TEMPO 7000 RA
05:55
V
11 °C 10 km+ - 200° 200° 11 kt METAR EHGG 260355Z AUTO 20011KT 160V230 9999 -RA FEW015CB 11/10 Q1002 REDZRA TEMPO 7000 RA
05:25
V
11 °C 10 km+ - 200° 200° 11 kt METAR EHGG 260325Z AUTO 20011KT 170V230 9999 DZ FEW015CB 11/09 Q1002
04:55
V
11 °C 10 km+ 4.700 ft 210° 210° 10 kt METAR EHGG 260255Z AUTO 21010KT 9999 -RA FEW015CB SCT031 BKN047 11/09 Q1003
04:25
V
11 °C 10 km+ 4.800 ft 210° 210° 10 kt METAR EHGG 260225Z AUTO 21010KT 9999 +DZRA SCT035 OVC048 11/09 Q1004
03:55
V
11 °C 10 km+ - 210° 210° 10 kt METAR EHGG 260155Z AUTO 21010KT 170V230 9999 NSC 11/09 Q1004
03:25
V
11 °C 10 km+ - 200° 200° 10 kt METAR EHGG 260125Z AUTO 20010KT 9999 SCT047 11/09 Q1005
02:55
V
11 °C 10 km+ - 200° 200° 10 kt METAR EHGG 260055Z AUTO 20010KT 170V230 9999 NSC 11/09 Q1005
02:25
V
11 °C 10 km+ - 200° 200° 10 kt METAR EHGG 260025Z AUTO 20010KT 170V230 9999 NSC 11/09 Q1006
01:55
V
11 °C 10 km+ - 190° 190° 7 kt METAR EHGG 252355Z AUTO 19007KT 9999 NSC 11/09 Q1007
01:25
V
11 °C 10 km+ - 200° 200° 8 kt METAR EHGG 252325Z AUTO 20008KT 170V230 9999 NSC 11/09 Q1007
00:55
V
11 °C 10 km+ 4.300 ft 240° 240° 10 kt METAR EHGG 252255Z AUTO 24010KT 200V280 9999 -RA FEW025 BKN043 OVC048 11/09 Q1008
00:25
V
10 °C 10 km+ 4.600 ft 210° 210° 7 kt METAR EHGG 252225Z AUTO 21007KT 9999 FEW028 SCT041 BKN046 10/08 Q1008

2022年9月25日

时间 代码 天气 温度 能见度 天花板 METAR/SPECI
23:55
V
10 °C 10 km+ - 200° 200° 6 kt METAR EHGG 252155Z AUTO 20006KT 9999 FEW049 10/08 Q1009
23:25
V
7 °C 10 km+ - 210° 210° 4 kt METAR EHGG 252125Z AUTO 21004KT 9999 NSC 07/07 Q1009
22:55
V
8 °C 10 km+ - 210° 210° 6 kt METAR EHGG 252055Z AUTO 21006KT 9999 NSC 08/07 Q1009 NOSIG
22:25
V
7 °C 10 km+ - 210° 210° 5 kt METAR EHGG 252025Z AUTO 21005KT 9999 NSC 07/06 Q1010 NOSIG
21:55
V
8 °C 10 km+ - 220° 220° 5 kt METAR EHGG 251955Z AUTO 22005KT 9999 NSC 08/07 Q1010 NOSIG
21:25
V
8 °C 10 km+ - 220° 220° 4 kt METAR EHGG 251925Z AUTO 22004KT 9999 NSC 08/06 Q1010 NOSIG
20:55
V
8 °C 10 km+ - 210° 210° 5 kt METAR EHGG 251855Z AUTO 21005KT 9999 NSC 08/07 Q1011 NOSIG
20:25
V
9 °C 10 km+ - 220° 220° 4 kt METAR EHGG 251825Z AUTO 22004KT 9999 NSC 09/07 Q1011 NOSIG
19:55
V
11 °C 10 km+ - 230° 230° 2 kt METAR EHGG 251755Z AUTO 23002KT 9999 NSC 11/08 Q1011 NOSIG
19:25
V
13 °C 10 km+ - 270° 270° 3 kt METAR EHGG 251725Z AUTO 27003KT 250V310 9999 -RA NSC 13/08 Q1011 NOSIG
18:55
V
13 °C 10 km+ - 280° 280° 3 kt METAR EHGG 251655Z AUTO 28003KT 250V320 9999 NSC 13/08 Q1012 NOSIG
18:25
V
14 °C 10 km+ - 310° 310° 4 kt METAR EHGG 251625Z AUTO 31004KT 280V340 9999 NSC 14/08 Q1012 NOSIG
17:55
V
14 °C 10 km+ - 300° 300° 7 kt METAR EHGG 251555Z AUTO 30007KT 270V330 9999 NSC 14/07 Q1012 NOSIG
17:25
V
15 °C 10 km+ - 350° 350° 6 kt METAR EHGG 251525Z AUTO 35006KT 320V040 9999 NSC 15/08 Q1012 NOSIG
16:55
V
15 °C 10 km+ 4.900 ft 310° 310° 6 kt METAR EHGG 251455Z AUTO 31006KT 290V350 9999 SCT033 SCT038 BKN049 15/07 Q1012 NOSIG
16:25
V
15 °C 10 km+ - 310° 310° 4 kt METAR EHGG 251425Z AUTO 31004KT 270V350 9999 NSC 15/07 Q1013 NOSIG
15:55
V
16 °C 10 km+ - 350° 350° 5 kt METAR EHGG 251355Z AUTO 35005KT 290V030 9999 NSC 16/07 Q1013 NOSIG
15:25
V
16 °C 10 km+ - 330° 330° 7 kt METAR EHGG 251325Z AUTO 33007KT 280V030 9999 FEW031 16/08 Q1013 NOSIG
14:55
V
14 °C 10 km+ - 340° 340° 6 kt METAR EHGG 251255Z AUTO 34006KT 300V010 9999 SCT049 14/08 Q1013 NOSIG
14:25
V
16 °C 10 km+ - 350° 350° 6 kt METAR EHGG 251225Z AUTO 35006KT 300V030 9999 SCT030 SCT037 16/08 Q1014 NOSIG
13:55
V
14 °C 10 km+ - 340° 340° 4 kt METAR EHGG 251155Z AUTO 34004KT 300V360 9999 NCD 14/09 Q1014 TEMPO 7000 -SHRA FEW025CB
13:25
M
15 °C 10 km+ 2.400 ft 340° 340° 5 kt METAR EHGG 251125Z AUTO 34005KT 280V040 9999 SCT019 BKN024 15/10 Q1014 TEMPO 7000 -SHRA FEW025CB
12:55
V
14 °C 10 km+ - 310° 310° 3 kt METAR EHGG 251055Z AUTO 31003KT 260V010 9999 NSC 14/10 Q1014 TEMPO 7000 -SHRA FEW025CB
12:25
V
14 °C 10 km+ - 360° 360° 4 kt METAR EHGG 251025Z AUTO 36004KT 330V050 9999 NSC 14/10 Q1014 TEMPO 7000 -SHRA FEW025CB
11:55
V
13 °C 10 km+ - 330° 330° 4 kt METAR EHGG 250955Z AUTO 33004KT 290V010 9999 SCT048 13/10 Q1015 TEMPO 7000 -SHRA FEW025CB
11:25
V
12 °C 10 km+ - 350° 350° 5 kt METAR EHGG 250925Z AUTO 35005KT 310V030 9999 -SHRA FEW015CB SCT046 12/10 Q1015 RERA TEMPO 7000 -SHRA FEW025CB
10:55
V
14 °C 10 km+ 3.100 ft 290° 290° 9 kt METAR EHGG 250855Z AUTO 29009KT 250V320 9999 OVC031 14/10 Q1014 TEMPO 7000 -SHRA FEW025CB
10:25
V
14 °C 10 km+ - 310° 310° 3 kt METAR EHGG 250825Z AUTO 31003KT 270V360 9999 FEW030 SCT043 14/11 Q1014 TEMPO 7000 -SHRA FEW025CB
09:55
V
12 °C 10 km+ - 300° 300° 3 kt METAR EHGG 250755Z AUTO 30003KT 250V330 9999 FEW030 12/10 Q1014 TEMPO 7000 -SHRA FEW025CB
09:25
V
10 °C 10 km+ - 260° 260° 2 kt METAR EHGG 250725Z AUTO 26002KT 9999 NCD 10/09 Q1014 NOSIG
08:55
V
8 °C 10 km+ - 240° 240° 1 kt METAR EHGG 250655Z AUTO 24001KT 9999 NCD 08/08 Q1014 NOSIG
08:25
L
5 °C 450 m - 270° 270° 1 kt METAR EHGG 250625Z AUTO 27001KT 0450 R05/1500U FG NCD 05/05 Q1014 BECMG CAVOK
07:55
L
5 °C 350 m - 280° 280° 1 kt METAR EHGG 250555Z AUTO 28001KT 0350 R05/0400D FG NCD 05/05 Q1014 BECMG 9999 NSW FEW025
07:25
L
4 °C 300 m - 240° 240° 2 kt METAR EHGG 250525Z AUTO 24002KT 0300 R05/0450N FG NCD 04/03 Q1014 BECMG 9999 NSW FEW025
06:55
L
4 °C 450 m - Var Var 1 kt METAR EHGG 250455Z AUTO VRB01KT 0450 R05/0650D FG NCD 04/04 Q1014 TEMPO 6000 MIFG
06:25
I
5 °C 1,6 km - Var 000° 0 kt METAR EHGG 250425Z AUTO 00000KT 1600 BR FEW028 05/05 Q1014 TEMPO 6000 MIFG
05:55
L
4 °C 800 m 2.600 ft 310° 310° 1 kt METAR EHGG 250355Z AUTO 31001KT 0800 R05/1700U FG BKN026 BKN032 04/04 Q1015
05:25
L
4 °C 550 m - 300° 300° 1 kt METAR EHGG 250325Z AUTO 30001KT 0550 R05/0500D FG NCD 04/04 Q1014
04:55
L
4 °C 650 m - 280° 280° 1 kt METAR EHGG 250255Z AUTO 28001KT 0650 R05/1100U FG NCD 04/04 Q1015
04:25
L
4 °C 550 m - Var Var 2 kt METAR EHGG 250225Z AUTO VRB02KT 0550 R05/0600D FG NCD 04/03 Q1015
03:55
L
5 °C 500 m - 320° 320° 2 kt METAR EHGG 250155Z AUTO 32002KT 0500 R05/0650D FG NSC 05/04 Q1015
03:25
L
5 °C 500 m - 300° 300° 1 kt METAR EHGG 250125Z AUTO 30001KT 0500 R05/0650D FG NCD 05/05 Q1015
02:55
L
5 °C 650 m - 320° 320° 2 kt METAR EHGG 250055Z AUTO 32002KT 0650 R05/0800D FG NCD 05/04 Q1015
02:25
L
5 °C 650 m - 320° 320° 2 kt METAR EHGG 250025Z AUTO 32002KT 0650 R05/1400N FG NCD 05/05 Q1015
01:55
L
5 °C 750 m - 330° 330° 1 kt METAR EHGG 242355Z AUTO 33001KT 0750 R05/P2000U FG FEW027 SCT030 05/05 Q1015
01:25
L
5 °C 500 m - Var Var 1 kt METAR EHGG 242325Z AUTO VRB01KT 0500 R05/0700N FG NCD 05/05 Q1015
00:55
L
6 °C 650 m - 300° 300° 1 kt METAR EHGG 242255Z AUTO 30001KT 0650 R05/1500N FG NCD 06/05 Q1015
00:25
V
6 °C 10 km+ - 310° 310° 3 kt METAR EHGG 242225Z AUTO 31003KT 9999 NCD 06/06 Q1015

2022年9月24日

时间 代码 天气 温度 能见度 天花板 METAR/SPECI
23:55
V
6 °C 9 km - 310° 310° 3 kt METAR EHGG 242155Z AUTO 31003KT 9000 FEW023 SCT027 06/06 Q1015
23:25
L
6 °C 450 m - 310° 310° 2 kt METAR EHGG 242125Z AUTO 31002KT 0450 R05/1100U FG NCD 06/06 Q1015
22:55
V
8 °C 10 km+ - 340° 340° 3 kt METAR EHGG 242055Z AUTO 34003KT 320V020 9999 NCD 08/08 Q1015 NOSIG
22:25
V
9 °C 10 km+ - 330° 330° 4 kt METAR EHGG 242025Z AUTO 33004KT 9999 NCD 09/08 Q1015 NOSIG
21:55
V
10 °C 10 km+ - 330° 330° 5 kt METAR EHGG 241955Z AUTO 33005KT 9999 FEW027 10/08 Q1015 NOSIG
21:25
V
11 °C 10 km+ - 340° 340° 5 kt METAR EHGG 241925Z AUTO 34005KT 9999 NCD 11/09 Q1015 NOSIG
20:55
V
12 °C 10 km+ - 350° 350° 5 kt METAR EHGG 241855Z AUTO 35005KT 310V010 9999 NCD 12/09 Q1014 NOSIG
20:25
V
13 °C 10 km+ - 350° 350° 6 kt METAR EHGG 241825Z AUTO 35006KT 320V030 9999 NSC 13/10 Q1014 NOSIG
19:55
V
13 °C 10 km+ - 350° 350° 7 kt METAR EHGG 241755Z AUTO 35007KT 310V020 9999 NSC 13/10 Q1014 NOSIG
19:25
V
13 °C 10 km+ 4.900 ft 350° 350° 5 kt METAR EHGG 241725Z AUTO 35005KT 310V030 9999 FEW026 OVC049 13/11 Q1014 NOSIG
18:55
V
13 °C 10 km+ 4.700 ft 020° 020° 3 kt METAR EHGG 241655Z AUTO 02003KT 350V050 9999 SCT043 OVC047 13/12 Q1014 NOSIG
18:25
V
13 °C 10 km+ 3.900 ft 360° 360° 4 kt METAR EHGG 241625Z AUTO 36004KT 320V040 9999 FEW022 OVC039 13/12 Q1013 REDZ NOSIG
17:55
I
13 °C 4,2 km 2.200 ft 010° 010° 4 kt METAR EHGG 241555Z AUTO 01004KT 330V060 4200 -RA FEW011 SCT017 OVC022 13/12 Q1013 REDZRA TEMPO 4000 DZRA BKN014
17:25
M
13 °C 6 km 2.100 ft 010° 010° 7 kt METAR EHGG 241525Z AUTO 01007KT 330V050 6000 -SHRA +DZ FEW012/// SCT016/// BKN021/// 13/11 Q1013 RERADZ TEMPO 4000 DZRA BKN014
16:55
M
13 °C 10 km+ 2.800 ft 010° 010° 7 kt METAR EHGG 241455Z AUTO 01007KT 320V050 9999 SCT024 OVC028 13/11 Q1013 NOSIG
较旧的数据

我们和第三方通过cookies跟踪您在我们网站上的上网行为。如果您继续,我们认为您同意我们的cookie政策。 了解更多